Terminal Aerodrome Forecast
Issued by NWS Lubbock, TX

Home | Current Version | Previous Version | Text Only | Print | Product List | Glossary On
Versions: 1 2 3 4 5 6 7 8 9 10 11 12 13 14 15 16 17 18 19 20 21 22 23 24
000
FTUS44 KLUB 030401 AAC
TAFLBB
TAF AMD
KLBB 030401Z 0304/0324 19011KT 2SM BR OVC002
      TEMPO 0304/0306 1/2SM FG
     FM030600 19011KT 3SM BR BKN005 OVC015
     FM030800 19011KT 4SM BR SCT010 BKN100
     FM031300 23012KT P6SM BKN100=

USA.gov is the U.S. government's official web portal to all federal, state and local government web resources and services.